User: anonymous   Login
Location: Albany
(35.0000°S, 118.0000°E)
Time: 05:28:56
(UTC-05:00)
Language:

CZ-4B R/B - Orbit

View from above orbital plane
View from above orbital plane
View from above satellite
View from above satellite

Ground track
Ground track

The orbit data is extracted from the following two-line orbital elements,

1 33410U 08053C   18020.86887027 +.00001051 +00000-0 +80699-4 0  9997
2 33410 097.7590 354.9057 0119955 179.9260 180.2001 14.98540190503165
Epoch (UTC): 20 January 2018 20:51:10
Eccentricity: 0.0119955
inclination: 97.7590°
perigee height: 488 km
apogee height: 655 km
right ascension of ascending node: 354.9057°
argument of perigee: 179.9260°
revolutions per day: 14.98540190
mean anomaly at epoch: 180.2001°
orbit number at epoch: 50316

The dashed part of the orbit path shows where the satellite is in the earth's shadow,  

DLR